1491768001.07,56116,14.31,74174.8,-3.67,-28.97,-29.51,0,*5C
1491768002.31,56117,14.31,74172.8,-3.67,-28.97,-29.57,0,*5B
1491768003.52,56118,14.31,74172.5,-3.65,-28.97,-29.57,0,*56
1491768004.79,56119,14.31,74176.8,-3.67,-29.01,-29.57,0,*5B
1491768006.05,56120,14.31,74176.0,-3.65,-29.01,-29.51,0,*55
1491768007.32,56121,14.31,74176.0,-3.67,-28.85,-29.39,0,*55
1491768008.58,56122,14.31,74178.3,-3.67,-28.97,-29.51,0,*5B
1491768009.85,56123,14.31,74172.8,-3.65,-29.01,-29.51,0,*56
1491768011.12,56124,14.31,74178.0,-3.67,-29.01,-29.57,0,*55
1491768012.33,56125,14.31,74176.8,-3.65,-28.97,-29.57,0,*58
1491768013.62,56126,14.31,74176.3,-3.67,-28.79,-29.39,0,*51
1491768014.91,56127,14.31,74176.5,-3.67,-29.01,-29.51,0,*50
1491768016.2,56128,14.31,74176.8,-3.67,-29.01,-29.51,0,*5F
1491768017.47,56129,14.31,74172.5,-3.67,-29.01,-29.57,0,*58
1491768018.74,56130,14.31,74178.3,-3.67,-28.97,-29.51,0,*58
1491768020.03,56131,14.31,74174.3,-3.67,-28.79,-29.35,0,*5B
1491768021.3,56132,14.31,74174.8,-3.67,-28.47,-29.17,0,*55
1491768022.57,56133,14.31,74174.5,-3.67,-28.85,-29.51,0,*58
1491768023.84,56134,14.31,74174.5,-3.67,-28.85,-29.39,0,*51
1491768025.08,56135,14.31,74176.5,-3.69,-29.01,-29.57,0,*5B
1491768026.31,56136,14.31,74176.5,-3.69,-28.85,-29.39,0,*5D
1491768027.56,56137,14.31,74172.8,-3.69,-28.91,-29.45,0,*52
1491768028.85,56138,14.31,74178.8,-3.67,-28.79,-29.35,0,*52
1491768030.14,56139,14.31,74176.3,-3.67,-29.01,-29.51,0,*5F
1491768031.44,56140,14.31,74178.8,-3.67,-29.01,-29.51,0,*51
1491768032.69,56141,14.31,74176.3,-3.71,-28.85,-29.39,0,*54
1491768033.95,56142,14.31,74176.3,-3.69,-28.75,-29.39,0,*51
1491768035.2,56143,14.31,74172.3,-3.69,-28.75,-29.29,0,*51
1491768036.42,56144,14.31,74174.5,-3.69,-28.85,-29.45,0,*53
1491768037.63,56145,14.31,74172.0,-3.69,-28.85,-29.45,0,*52
1491768038.88,56146,14.31,74176.0,-3.69,-28.75,-29.29,0,*54
1491768040.09,56147,14.31,74176.0,-3.69,-28.69,-29.23,0,*52
1491768041.33,56148,14.31,74178.0,-3.69,-28.91,-29.45,0,*5A
1491768042.57,56149,14.31,74178.8,-3.69,-28.85,-29.39,0,*55
1491768043.8,56150,14.31,74176.0,-3.69,-28.85,-29.29,0,*5C
1491768045.04,56151,14.31,74174.5,-3.69,-28.85,-29.39,0,*5C
1491768046.28,56152,14.31,74176.0,-3.69,-29.01,-29.57,0,*5A
1491768047.52,56153,14.31,74176.0,-3.69,-28.91,-29.57,0,*53
1491768048.76,56154,14.31,74176.3,-3.69,-28.91,-29.57,0,*54
1491768049.99,56155,14.31,74172.0,-3.69,-28.69,-29.29,0,*5B
1491768051.23,56156,14.31,74176.8,-3.69,-28.91,-29.57,0,*56
1491768052.45,56157,14.31,74172.3,-3.69,-28.85,-29.45,0,*51
1491768053.65,56158,14.31,74174.8,-3.69,-28.69,-29.23,0,*5C
1491768054.91,56159,14.31,74174.5,-3.69,-28.75,-29.39,0,*5B
1491768056.18,56160,14.31,74176.8,-3.67,-28.85,-29.35,0,*5C
1491768057.41,56161,14.31,74178.0,-3.69,-28.85,-29.39,0,*5F
1491768058.63,56162,14.31,74172.3,-3.69,-28.85,-29.45,0,*57
1491768059.88,56163,14.31,74172.5,-3.71,-28.69,-29.29,0,*57
1491768061.17,56164,14.31,74174.3,-3.67,-28.79,-29.39,0,*57
1491768062.4,56165,14.31,74178.3,-3.69,-28.69,-29.39,0,*59
1491768063.67,56166,14.31,74178.5,-3.71,-28.75,-29.29,0,*5F
1491768064.93,56167,14.31,74172.8,-3.69,-28.75,-29.39,0,*56
1491768066.17,56168,14.31,74174.0,-3.69,-29.01,-29.57,0,*53
1491768067.4,56169,14.31,74176.5,-3.69,-28.85,-29.29,0,*56
1491768068.61,56170,14.31,74174.8,-3.69,-28.53,-29.07,0,*59
1491768069.84,56171,14.31,74174.3,-3.67,-28.69,-29.23,0,*59
1491768071.1,56172,14.31,74172.3,-3.71,-28.85,-29.39,0,*54
1491768072.32,56173,14.31,74174.8,-3.71,-28.69,-29.23,0,*5C
1491768073.56,56174,14.31,74172.8,-3.69,-28.85,-29.39,0,*5B
1491768074.81,56175,14.31,74174.0,-3.69,-28.75,-29.29,0,*54
1491768076.08,56176,14.31,74174.3,-3.71,-28.75,-29.29,0,*5E
1491768077.32,56177,14.31,74174.5,-3.67,-28.69,-29.23,0,*5F
1491768078.57,56178,14.31,74176.3,-3.69,-28.75,-29.29,0,*59
1491768079.8,56179,14.31,74172.8,-3.69,-28.69,-29.29,0,*55
1491768081.06,56180,14.31,74174.5,-3.67,-28.69,-29.39,0,*5C
1491768082.29,56181,14.31,74174.5,-3.71,-29.07,-29.57,0,*5B
1491768083.51,56182,14.31,74174.3,-3.69,-28.85,-29.45,0,*59
1491768084.75,56183,14.31,74174.8,-3.69,-29.01,-29.57,0,*56
1491768086.01,56184,14.31,74170.8,-3.71,-29.01,-29.57,0,*58
1491768087.27,56185,14.31,74174.5,-3.71,-28.91,-29.57,0,*51
1491768088.48,56186,14.31,74172.0,-3.69,-29.07,-29.61,0,*50
1491768089.74,56187,14.31,74174.0,-3.71,-28.91,-29.57,0,*53
1491768091.0,56188,14.31,74176.8,-3.71,-29.01,-29.61,0,*51
1491768092.26,56189,14.31,74172.0,-3.71,-29.01,-29.57,0,*55
1491768093.56,56190,14.31,74176.3,-3.73,-28.91,-29.35,0,*53
1491768094.8,56191,14.31,74172.3,-3.71,-28.85,-29.45,0,*52
1491768096.05,56192,14.31,74172.8,-3.73,-28.59,-29.23,0,*52
1491768097.32,56193,14.31,74176.0,-3.73,-28.91,-29.45,0,*57
1491768098.61,56194,14.31,74174.8,-3.73,-28.79,-29.51,0,*53
1491768099.85,56195,14.31,74174.8,-3.73,-28.97,-29.61,0,*51
1491768101.08,56196,14.31,74172.5,-3.73,-29.07,-29.61,0,*5A
1491768102.33,56197,14.31,74172.3,-3.69,-28.91,-29.57,0,*5B
1491768103.55,56198,14.31,74172.0,-3.71,-28.69,-29.07,0,*5F
1491768104.81,56199,14.31,74174.5,-3.71,-28.69,-29.39,0,*53
1491768106.08,56200,14.31,74170.8,-3.71,-28.59,-29.29,0,*52
1491768107.33,56201,14.31,74174.8,-3.71,-28.59,-29.23,0,*59
1491768108.59,56202,14.31,74174.5,-3.69,-28.75,-29.39,0,*56
1491768109.85,56203,14.31,74172.5,-3.71,-28.85,-29.39,0,*51
1491768111.11,56204,14.31,74172.5,-3.73,-28.97,-29.51,0,*59
1491768112.37,56205,14.31,74174.0,-3.71,-28.91,-29.57,0,*5A
1491768113.61,56206,14.31,74176.0,-3.71,-28.85,-29.57,0,*5C
1491768114.86,56207,14.31,74174.3,-3.71,-28.69,-29.29,0,*56
1491768116.13,56208,14.31,74174.8,-3.73,-28.91,-29.61,0,*50
1491768117.39,56209,14.31,74172.3,-3.73,-28.91,-29.61,0,*51
1491768118.68,56210,14.31,74178.8,-3.73,-28.79,-29.51,0,*5C
1491768119.96,56211,14.31,74172.0,-3.73,-28.75,-29.29,0,*5E
1491768121.23,56212,14.31,74174.5,-3.73,-28.91,-29.45,0,*5D
1491768122.47,56213,14.31,74174.8,-3.73,-28.97,-29.61,0,*5C
1491768123.7,56214,14.31,74176.3,-3.71,-29.07,-29.61,0,*51
1491768124.99,56215,14.31,74172.5,-3.73,-28.91,-29.51,0,*5F
1491768126.25,56216,14.31,74176.3,-3.75,-28.75,-29.35,0,*52
1491768127.54,56217,14.31,74172.0,-3.73,-28.43,-28.91,0,*5F
1491768128.81,56218,14.31,74174.0,-3.73,-28.47,-29.13,0,*5F
1491768130.09,56219,14.31,74174.0,-3.73,-28.63,-29.29,0,*51
1491768131.36,56220,14.31,74174.0,-3.73,-28.79,-29.45,0,*5A
1491768132.64,56221,14.31,74174.0,-3.73,-28.75,-29.35,0,*50
1491768133.9,56222,14.31,74174.8,-3.73,-28.59,-29.23,0,*5A
1491768135.2,56223,14.31,74172.8,-3.73,-28.91,-29.35,0,*58
1491768136.46,56224,14.31,74176.0,-3.73,-28.59,-29.23,0,*5C
1491768137.68,56225,14.31,74172.0,-3.71,-28.53,-29.07,0,*53
1491768138.94,56226,14.31,74176.3,-3.73,-28.63,-29.23,0,*57
1491768140.22,56227,14.31,74174.0,-3.73,-28.79,-29.29,0,*57
1491768141.5,56228,14.31,74172.0,-3.73,-28.75,-29.29,0,*54
1491768142.79,56229,14.31,74172.3,-3.73,-28.79,-29.35,0,*54
1491768144.08,56230,14.31,74176.0,-3.73,-28.75,-29.35,0,*50
1491768145.34,56231,14.31,74174.3,-3.71,-28.85,-29.39,0,*50
1491768146.63,56232,14.31,74174.5,-3.73,-28.91,-29.51,0,*5A
1491768147.85,56233,14.31,74172.0,-3.69,-29.07,-29.57,0,*58
1491768149.11,56234,14.31,74172.5,-3.73,-28.97,-29.51,0,*5A
1491768150.38,56235,14.31,74172.3,-3.73,-28.97,-29.51,0,*5B
1491768151.64,56236,14.31,74172.3,-3.73,-28.97,-29.51,0,*58
1491768152.9,56237,14.31,74174.3,-3.75,-28.79,-29.35,0,*5D
1491768154.19,56238,14.31,74172.8,-3.73,-28.75,-29.35,0,*58
1491768155.46,56239,14.31,74178.5,-3.73,-28.79,-29.45,0,*52
1491768156.75,56240,14.31,74174.5,-3.73,-28.91,-29.51,0,*5F
1491768158.05,56241,14.31,74174.0,-3.73,-28.91,-29.51,0,*5E
1491768159.34,56242,14.31,74172.8,-3.73,-28.79,-29.35,0,*59
1491768160.61,56243,14.31,74174.3,-3.73,-28.47,-29.13,0,*51
1491768161.88,56244,14.31,74172.3,-3.73,-28.79,-29.45,0,*58
1491768163.11,56245,14.31,74174.5,-3.73,-29.07,-29.61,0,*57
1491768164.35,56246,14.31,74172.0,-3.73,-29.07,-29.61,0,*54
1491768165.61,56247,14.31,74172.5,-3.75,-28.79,-29.35,0,*5A
1491768166.85,56248,14.31,74172.3,-3.75,-28.91,-29.61,0,*52
1491768168.11,56249,14.31,74174.5,-3.73,-28.79,-29.45,0,*55
1491768169.37,56250,14.31,74170.3,-3.75,-28.75,-29.35,0,*50
1491768170.63,56251,14.31,74174.8,-3.75,-28.79,-29.35,0,*5D
1491768171.91,56252,14.31,74172.3,-3.73,-28.79,-29.29,0,*55
1491768173.15,56253,14.31,74172.5,-3.75,-28.91,-29.45,0,*5E
1491768174.41,56254,14.31,74172.8,-3.75,-28.63,-29.35,0,*53
1491768175.67,56255,14.31,74174.5,-3.71,-28.37,-29.01,0,*50
1491768176.94,56256,14.31,74172.8,-3.73,-28.79,-29.45,0,*5B
1491768178.16,56257,14.31,74170.0,-3.75,-28.59,-29.23,0,*5E
1491768179.41,56258,14.31,74172.8,-3.75,-28.75,-29.29,0,*55
1491768180.67,56259,14.31,74172.0,-3.73,-28.59,-29.23,0,*56
1491768181.92,56260,14.31,74172.8,-3.75,-28.63,-29.29,0,*59
1491768183.18,56261,14.31,74176.5,-3.73,-28.63,-29.23,0,*54
1491768184.46,56262,14.31,74170.3,-3.73,-28.63,-29.29,0,*5D
1491768185.72,56263,14.31,74174.5,-3.73,-28.59,-29.23,0,*5F
1491768186.95,56264,14.31,74172.8,-3.73,-28.31,-28.97,0,*58
1491768188.24,56265,14.31,74174.8,-3.73,-28.75,-29.35,0,*50
1491768189.5,56266,14.31,74174.3,-3.73,-28.59,-29.23,0,*5A
1491768190.78,56267,14.31,74168.5,-3.73,-28.59,-29.29,0,*51
1491768192.0,56268,14.31,74174.5,-3.75,-28.47,-29.07,0,*5B
1491768193.26,56269,14.31,74170.0,-3.73,-28.59,-29.23,0,*55
1491768194.5,56270,14.31,74172.3,-3.71,-28.43,-29.07,0,*52
1491768195.75,56271,14.31,74174.0,-3.71,-28.43,-29.07,0,*53
1491768196.98,56272,14.31,74170.8,-3.71,-28.53,-29.07,0,*51
1491768198.26,56273,14.31,74174.5,-3.71,-28.75,-29.39,0,*59
1491768199.54,56274,14.31,74172.0,-3.71,-28.43,-29.01,0,*50
1491768200.81,56275,14.31,74174.8,-3.71,-28.43,-29.17,0,*56
1491768202.06,56276,14.31,74172.5,-3.71,-28.59,-29.23,0,*59
1491768203.32,56277,14.31,74170.5,-3.71,-28.59,-29.23,0,*58
1491768204.59,56278,14.31,74174.5,-3.71,-28.59,-29.17,0,*50
1491768205.87,56279,14.31,74172.5,-3.71,-28.59,-29.17,0,*51
1491768207.12,56280,14.31,74170.3,-3.71,-28.43,-29.07,0,*5D
1491768208.38,56281,14.31,74172.3,-3.71,-28.53,-29.17,0,*5C
1491768209.66,56282,14.31,74172.0,-3.71,-28.59,-29.17,0,*55
1491768210.88,56283,14.31,74170.0,-3.71,-28.69,-29.23,0,*50
1491768212.13,56284,14.31,74168.8,-3.71,-28.69,-29.39,0,*5C
1491768213.41,56285,14.31,74172.3,-3.71,-28.75,-29.39,0,*50
1491768214.64,56286,14.31,74168.5,-3.69,-28.69,-29.17,0,*5B
1491768215.87,56287,14.31,74172.5,-3.69,-28.69,-29.29,0,*57
1491768217.16,56288,14.31,74172.0,-3.71,-28.25,-28.91,0,*5B
1491768218.44,56289,14.31,74176.3,-3.71,-28.43,-28.91,0,*5A
1491768219.7,56290,14.31,74174.0,-3.69,-28.43,-28.91,0,*5B
1491768220.94,56291,14.31,74172.8,-3.69,-28.53,-29.01,0,*53
1491768222.21,56292,14.31,74172.3,-3.71,-28.43,-29.01,0,*58
1491768223.47,56293,14.31,74172.8,-3.67,-28.15,-28.79,0,*53
1491768224.75,56294,14.31,74172.5,-3.67,-28.47,-29.17,0,*5A
1491768225.95,56295,14.31,74174.0,-3.69,-28.69,-29.23,0,*5E
1491768227.19,56296,14.31,74174.0,-3.69,-28.53,-29.17,0,*53
1491768228.39,56297,14.31,74174.5,-3.69,-28.69,-29.23,0,*5C
1491768229.65,56298,14.31,74170.5,-3.69,-28.43,-29.01,0,*5B
1491768230.92,56299,14.31,74168.0,-3.67,-28.37,-29.01,0,*57
1491768232.18,56300,14.31,74172.8,-3.67,-28.37,-29.01,0,*56
1491768233.46,56301,14.31,74170.3,-3.67,-28.47,-29.01,0,*50
1491768234.67,56302,14.31,74170.3,-3.69,-28.53,-29.07,0,*5E
1491768235.87,56303,14.31,74174.0,-3.69,-28.69,-29.23,0,*50
1491768237.13,56304,14.31,74172.5,-3.67,-28.63,-29.23,0,*53
1491768238.39,56305,14.31,74172.3,-3.67,-28.85,-29.39,0,*51
1491768239.68,56306,14.31,74172.0,-3.67,-28.79,-29.39,0,*51
1491768240.95,56307,14.31,74168.0,-3.67,-28.69,-29.35,0,*5D
1491768242.23,56308,14.31,74172.3,-3.67,-28.79,-29.39,0,*5F
1491768243.52,56309,14.31,74172.0,-3.67,-28.63,-29.17,0,*59
1491768244.78,56310,14.31,74172.3,-3.67,-28.69,-29.35,0,*5B
1491768246.04,56311,14.31,74170.0,-3.67,-28.63,-29.23,0,*57
1491768247.3,56312,14.31,74172.3,-3.67,-28.53,-29.01,0,*57
1491768248.56,56313,14.31,74170.8,-3.67,-28.47,-28.97,0,*5D
1491768249.81,56314,14.31,74172.5,-3.67,-28.47,-28.97,0,*5A
1491768251.05,56315,14.31,74168.8,-3.65,-28.53,-29.01,0,*52
1491768252.29,56316,14.31,74168.8,-3.65,-28.53,-29.17,0,*56
1491768253.54,56317,14.31,74172.3,-3.65,-28.63,-29.13,0,*50
1491768254.8,56318,14.31,74170.8,-3.67,-28.53,-29.13,0,*5E
1491768256.01,56319,14.31,74170.5,-3.65,-28.53,-28.97,0,*50
1491768257.27,56320,14.31,74168.5,-3.65,-28.47,-29.01,0,*51
1491768258.5,56321,14.31,74168.8,-3.65,-28.69,-29.39,0,*57
1491768259.76,56322,14.31,74170.0,-3.67,-28.79,-29.23,0,*5C
1491768261.01,56323,14.31,74170.0,-3.61,-28.47,-29.13,0,*55
1491768262.26,56324,14.31,74172.3,-3.65,-28.79,-29.39,0,*53
1491768263.51,56325,14.31,74170.8,-3.65,-28.85,-29.51,0,*5F
1491768264.77,56326,14.31,74170.8,-3.65,-28.79,-29.39,0,*51
1491768266.01,56327,14.31,74174.5,-3.65,-28.85,-29.35,0,*5F
1491768267.28,56328,14.31,74172.5,-3.65,-28.79,-29.35,0,*53
1491768268.52,56329,14.31,74172.8,-3.61,-28.47,-29.13,0,*5F
1491768269.78,56330,14.31,74174.0,-3.65,-28.63,-29.13,0,*55
1491768271.06,56331,14.31,74172.8,-3.67,-28.63,-29.13,0,*56
1491768272.32,56332,14.31,74170.0,-3.67,-28.53,-29.17,0,*52
1491768273.58,56333,14.31,74168.3,-3.65,-28.47,-29.01,0,*53
1491768274.79,56334,14.31,74170.3,-3.65,-28.53,-29.23,0,*51
1491768276.04,56335,14.31,74172.3,-3.61,-28.59,-29.13,0,*5D
1491768277.31,56336,14.31,74170.5,-3.67,-28.69,-29.35,0,*5F
1491768278.54,56337,14.31,74168.3,-3.65,-28.63,-29.23,0,*51
1491768279.74,56338,14.31,74170.5,-3.65,-28.69,-29.23,0,*54
1491768281.0,56339,14.31,74174.5,-3.61,-28.63,-29.17,0,*5C
1491768282.26,56340,14.31,74172.0,-3.61,-28.63,-29.13,0,*56
1491768283.49,56341,14.31,74174.0,-3.61,-28.31,-28.91,0,*5B
1491768284.72,56342,14.31,74172.3,-3.61,-28.43,-28.97,0,*5B
1491768285.98,56343,14.31,74172.3,-3.59,-28.53,-29.01,0,*5E
1491768287.26,56344,14.31,74174.3,-3.59,-28.43,-29.01,0,*58
1491768288.52,56345,14.31,74168.5,-3.61,-28.75,-29.35,0,*50
1491768289.78,56346,14.31,74172.0,-3.61,-28.79,-29.29,0,*52
1491768291.03,56347,14.31,74170.3,-3.61,-28.47,-29.13,0,*57
1491768292.28,56348,14.31,74168.8,-3.61,-28.63,-29.17,0,*5A
1491768293.54,56349,14.31,74174.0,-3.61,-28.91,-29.29,0,*5B
1491768294.8,56350,14.31,74170.0,-3.61,-28.59,-29.13,0,*5E
1491768296.05,56351,14.31,74170.8,-3.61,-28.63,-29.29,0,*5F
1491768297.31,56352,14.31,74170.8,-3.61,-28.59,-29.17,0,*58
1491768298.57,56353,14.31,74172.5,-3.59,-28.37,-29.01,0,*5D
1491768299.83,56354,14.31,74170.3,-3.59,-28.53,-29.13,0,*5B
1491768301.08,56355,14.31,74168.5,-3.59,-28.69,-29.29,0,*5A
1491768302.33,56356,14.31,74174.3,-3.59,-28.59,-29.23,0,*50
1491768303.58,56357,14.31,74172.0,-3.59,-28.69,-29.13,0,*51
1491768304.84,56358,14.31,74172.0,-3.61,-28.59,-29.17,0,*52
1491768306.12,56359,14.31,74170.3,-3.59,-28.59,-29.29,0,*55
1491768307.35,56360,14.31,74168.8,-3.59,-28.53,-29.07,0,*59
1491768308.63,56361,14.31,74172.3,-3.59,-28.75,-29.39,0,*51
1491768309.88,56362,14.31,74170.5,-3.59,-28.59,-29.07,0,*51
1491768311.16,56363,14.31,74168.3,-3.59,-28.59,-29.13,0,*55
1491768312.42,56364,14.31,74170.5,-3.59,-28.59,-29.23,0,*51
1491768313.65,56365,14.31,74170.3,-3.59,-28.53,-29.23,0,*5A
1491768314.93,56366,14.31,74172.5,-3.59,-28.59,-29.13,0,*50
1491768316.2,56367,14.31,74168.5,-3.59,-28.59,-29.13,0,*51
1491768317.46,56368,14.31,74170.5,-3.61,-28.59,-29.13,0,*55
1491768318.68,56369,14.31,74168.0,-3.55,-28.69,-29.23,0,*53
1491768319.94,56370,14.31,74174.0,-3.59,-28.59,-29.23,0,*54
1491768321.19,56371,14.31,74170.8,-3.57,-28.75,-29.29,0,*5F
1491768322.42,56372,14.31,74170.5,-3.57,-28.75,-29.23,0,*56
1491768323.7,56373,14.31,74170.8,-3.59,-28.59,-29.13,0,*54
1491768324.92,56374,14.31,74170.5,-3.59,-28.69,-29.23,0,*53
1491768326.2,56375,14.31,74168.3,-3.59,-28.59,-29.13,0,*52
1491768327.46,56376,14.31,74170.5,-3.59,-28.53,-29.13,0,*5B
1491768328.71,56377,14.31,74174.0,-3.59,-28.59,-29.07,0,*55
1491768329.94,56378,14.31,74168.3,-3.57,-28.59,-29.23,0,*52
1491768331.17,56379,14.31,74172.3,-3.57,-28.69,-29.13,0,*53
1491768332.45,56380,14.31,74170.5,-3.59,-28.75,-29.29,0,*5F
1491768333.67,56381,14.31,74170.3,-3.57,-28.75,-29.23,0,*5A
1491768334.9,56382,14.31,74170.3,-3.59,-28.69,-29.23,0,*5A
1491768336.17,56383,14.31,74168.5,-3.57,-28.91,-29.39,0,*59
1491768337.42,56384,14.31,74168.0,-3.55,-28.79,-29.23,0,*51
1491768338.64,56385,14.31,74168.5,-3.57,-28.69,-29.29,0,*59
1491768339.85,56386,14.31,74170.3,-3.57,-28.69,-29.23,0,*50
1491768341.1,56387,14.31,74172.0,-3.55,-28.63,-29.07,0,*5F
1491768342.33,56388,14.31,74168.3,-3.57,-28.75,-29.23,0,*53
1491768343.56,56389,14.31,74170.8,-3.57,-28.59,-29.23,0,*5C
1491768344.81,56390,14.31,74170.5,-3.57,-28.75,-29.29,0,*50
1491768346.04,56391,14.31,74172.3,-3.57,-28.69,-29.13,0,*55
1491768347.29,56392,14.31,74170.3,-3.57,-28.75,-29.29,0,*52
1491768348.55,56393,14.31,74172.5,-3.57,-28.75,-29.39,0,*52
1491768349.78,56394,14.31,74172.0,-3.55,-28.69,-29.23,0,*51
1491768351.03,56395,14.31,74170.3,-3.57,-28.75,-29.29,0,*55
1491768352.23,56396,14.31,74170.0,-3.57,-28.69,-29.23,0,*51
1491768353.5,56397,14.31,74168.0,-3.55,-28.85,-29.35,0,*57
1491768354.73,56398,14.31,74168.0,-3.55,-28.97,-29.57,0,*5F
1491768355.98,56399,14.31,74168.0,-3.57,-28.59,-29.13,0,*5E
1491768357.23,56400,14.31,74172.3,-3.57,-28.75,-29.29,0,*5E
1491768358.46,56401,14.31,74174.3,-3.57,-28.59,-29.07,0,*5D
1491768359.74,56402,14.31,74170.0,-3.55,-28.47,-29.01,0,*55
1491768360.97,56403,14.31,74168.0,-3.57,-28.53,-29.13,0,*50
1491768362.23,56404,14.31,74170.0,-3.55,-28.69,-29.35,0,*58
1491768363.51,56405,14.31,74172.3,-3.55,-28.79,-29.39,0,*54
1491768364.74,56406,14.31,74168.3,-3.57,-28.85,-29.39,0,*56
1491768366.0,56407,14.31,74168.3,-3.55,-28.85,-29.39,0,*55
1491768367.24,56408,14.31,74168.3,-3.57,-28.85,-29.39,0,*58
1491768368.49,56409,14.31,74170.5,-3.57,-28.75,-29.39,0,*56
1491768369.76,56410,14.31,74166.8,-3.55,-28.85,-29.35,0,*5F
1491768370.99,56411,14.31,74168.8,-3.53,-28.53,-29.17,0,*53
1491768372.25,56412,14.31,74168.0,-3.55,-28.37,-29.01,0,*53
1491768373.48,56413,14.31,74168.3,-3.57,-28.69,-29.29,0,*51
1491768374.74,56414,14.31,74170.3,-3.55,-28.69,-29.35,0,*59
1491768375.99,56415,14.25,74166.3,-3.53,-28.63,-29.17,0,*54
1491768377.27,56416,14.31,74170.3,-3.55,-28.63,-29.17,0,*51
1491768378.53,56417,14.31,74170.3,-3.55,-28.53,-29.17,0,*53
1491768379.78,56418,14.31,74168.5,-3.57,-28.75,-29.29,0,*57
1491768381.04,56419,14.31,74168.8,-3.55,-28.85,-29.35,0,*56
1491768382.33,56420,14.31,74168.0,-3.55,-28.79,-29.35,0,*5F
1491768383.58,56421,14.31,74170.8,-3.55,-28.63,-29.07,0,*54
1491768384.8,56422,14.31,74172.5,-3.55,-28.69,-29.23,0,*5B
1491768386.08,56423,14.31,74168.8,-3.55,-28.63,-29.17,0,*57
1491768387.29,56424,14.31,74172.0,-3.53,-28.53,-29.07,0,*54
1491768388.52,56425,14.31,74170.5,-3.55,-28.37,-29.07,0,*51
1491768389.8,56426,14.31,74174.3,-3.55,-28.63,-29.17,0,*52
1491768391.05,56427,14.31,74168.8,-3.53,-28.63,-29.17,0,*55
1491768392.31,56428,14.31,74170.5,-3.53,-28.63,-29.17,0,*5A
1491768393.55,56429,14.31,74168.8,-3.53,-28.53,-29.01,0,*5F
1491768394.8,56430,14.31,74170.8,-3.53,-28.47,-29.01,0,*52
1491768396.08,56431,14.31,74170.0,-3.51,-28.47,-29.01,0,*51
1491768397.36,56432,14.31,74170.5,-3.51,-28.59,-29.17,0,*5A
1491768398.57,56433,14.31,74172.3,-3.53,-28.69,-29.07,0,*5B
1491768399.82,56434,14.31,74168.8,-3.53,-28.63,-29.17,0,*57
1491768401.07,56435,14.31,74170.5,-3.53,-28.85,-29.35,0,*5E
1491768402.35,56436,14.31,74170.0,-3.51,-28.79,-29.35,0,*5C
1491768403.62,56437,14.31,74170.3,-3.53,-28.79,-29.35,0,*5F
1491768404.9,56438,14.31,74168.8,-3.51,-28.75,-29.17,0,*5E
1491768406.18,56439,14.31,74170.3,-3.51,-28.75,-29.17,0,*5F
1491768407.44,56440,14.31,74170.3,-3.53,-28.79,-29.35,0,*5F
1491768408.72,56441,14.31,74170.3,-3.51,-28.75,-29.29,0,*5D
1491768409.99,56442,14.25,74166.3,-3.51,-28.75,-29.17,0,*53
1491768411.25,56443,14.31,74168.8,-3.49,-28.79,-29.17,0,*57
1491768412.48,56444,14.31,74168.3,-3.53,-28.69,-29.17,0,*5A
1491768413.77,56445,14.31,74170.3,-3.51,-28.91,-29.35,0,*5E
1491768415.05,56446,14.31,74168.8,-3.51,-28.59,-29.17,0,*59
1491768416.32,56447,14.31,74170.0,-3.51,-28.47,-29.13,0,*53
1491768417.6,56448,14.31,74170.5,-3.51,-28.63,-29.13,0,*5A
1491768418.87,56449,14.31,74170.8,-3.51,-28.47,-29.13,0,*5D
1491768420.15,56450,14.31,74170.5,-3.51,-28.47,-28.91,0,*5E
1491768421.41,56451,14.31,74168.0,-3.51,-28.43,-28.97,0,*5D
1491768422.69,56452,14.31,74170.8,-3.51,-28.43,-28.91,0,*58
1491768423.94,56453,14.31,74170.0,-3.49,-28.79,-29.17,0,*56
1491768425.2,56454,14.31,74170.8,-3.49,-28.79,-29.29,0,*5C
1491768426.45,56455,14.31,74168.8,-3.49,-28.79,-29.29,0,*5D
1491768427.7,56456,14.31,74174.0,-3.49,-28.75,-29.29,0,*52
1491768428.95,56457,14.31,74170.3,-3.49,-28.59,-29.13,0,*54
1491768430.2,56458,14.31,74168.8,-3.49,-28.63,-29.17,0,*56
1491768431.48,56459,14.31,74170.5,-3.51,-28.63,-29.13,0,*5A
1491768432.76,56460,14.31,74172.3,-3.51,-28.79,-29.29,0,*52
1491768434.01,56461,14.31,74174.5,-3.47,-28.43,-28.97,0,*59
1491768435.26,56462,14.31,74170.3,-3.49,-28.63,-29.17,0,*5F
1491768436.52,56463,14.31,74172.0,-3.49,-28.79,-29.29,0,*58
1491768437.74,56464,14.31,74170.3,-3.47,-28.69,-29.23,0,*5A
1491768438.99,56465,14.31,74170.3,-3.49,-28.75,-29.29,0,*52
1491768440.24,56466,14.31,74172.0,-3.49,-28.59,-29.01,0,*55
1491768441.5,56467,14.31,74170.3,-3.49,-28.63,-29.17,0,*5A
1491768442.75,56468,14.25,74168.5,-3.47,-28.59,-29.23,0,*55
1491768443.97,56469,14.31,74170.8,-3.47,-28.69,-29.23,0,*57
1491768445.21,56470,14.31,74172.3,-3.49,-28.91,-29.45,0,*56
1491768446.47,56471,14.25,74168.3,-3.49,-28.91,-29.51,0,*52
1491768447.71,56472,14.31,74168.8,-3.49,-28.97,-29.35,0,*55
1491768448.96,56473,14.31,74170.8,-3.47,-28.85,-29.29,0,*54
1491768450.23,56474,14.31,74170.3,-3.47,-28.75,-29.29,0,*5C
1491768451.48,56475,14.31,74168.0,-3.49,-28.79,-29.29,0,*5F
1491768452.68,56476,14.31,74168.5,-3.45,-28.97,-29.61,0,*5C
1491768453.92,56477,14.31,74172.0,-3.49,-28.91,-29.45,0,*51
1491768455.17,56478,14.31,74174.0,-3.49,-28.79,-29.29,0,*52
1491768456.42,56479,14.31,74170.3,-3.49,-28.75,-29.29,0,*5F
1491768457.67,56480,14.31,74174.0,-3.49,-28.75,-29.29,0,*59
1491768458.93,56481,14.31,74172.3,-3.49,-28.79,-29.35,0,*59
1491768460.19,56482,14.31,74170.5,-3.47,-28.75,-29.45,0,*5F
1491768461.39,56483,14.31,74170.5,-3.45,-28.97,-29.45,0,*50
1491768462.62,56484,14.31,74168.3,-3.45,-28.85,-29.39,0,*5F
1491768463.89,56485,14.31,74168.8,-3.49,-28.91,-29.35,0,*5B
1491768465.14,56486,14.31,74168.5,-3.47,-28.91,-29.57,0,*52
1491768466.41,56487,14.31,74170.8,-3.49,-29.01,-29.51,0,*53
1491768467.69,56488,14.31,74168.8,-3.47,-28.91,-29.39,0,*54
1491768468.94,56489,14.31,74168.8,-3.47,-28.85,-29.29,0,*51
1491768470.17,56490,14.31,74168.0,-3.47,-28.97,-29.57,0,*53
1491768471.4,56491,14.31,74166.8,-3.47,-28.97,-29.57,0,*52
1491768472.63,56492,14.31,74170.3,-3.49,-28.91,-29.45,0,*5A
1491768473.84,56493,14.31,74172.3,-3.49,-28.97,-29.61,0,*5B
1491768475.12,56494,14.31,74172.5,-3.47,-28.91,-29.39,0,*59
1491768476.36,56495,14.31,74168.5,-3.49,-28.91,-29.45,0,*5D
1491768477.62,56496,14.31,74174.3,-3.49,-28.91,-29.51,0,*5B
1491768478.87,56497,14.31,74170.0,-3.45,-28.75,-29.39,0,*52
1491768480.12,56498,14.31,74174.8,-3.47,-28.85,-29.29,0,*51
1491768481.39,56499,14.31,74170.8,-3.49,-28.79,-29.35,0,*50
1491768482.62,56500,14.31,74168.3,-3.47,-28.85,-29.57,0,*58
1491768483.85,56501,14.31,74168.5,-3.47,-28.97,-29.45,0,*59
1491768485.08,56502,14.31,74168.5,-3.49,-28.79,-29.45,0,*54
1491768486.35,56503,14.31,74170.5,-3.47,-28.75,-29.29,0,*5D
1491768487.61,56504,14.31,74170.3,-3.49,-28.79,-29.35,0,*55
1491768488.83,56505,14.31,74168.3,-3.47,-28.69,-29.07,0,*5A
1491768490.09,56506,14.31,74168.0,-3.47,-28.85,-29.39,0,*56
1491768491.35,56507,14.31,74168.0,-3.47,-28.75,-29.29,0,*59
1491768492.56,56508,14.31,74170.5,-3.49,-28.97,-29.45,0,*5E
1491768493.8,56509,14.31,74170.0,-3.49,-28.91,-29.45,0,*59
1491768495.07,56510,14.31,74168.5,-3.49,-28.91,-29.51,0,*54
1491768496.32,56511,14.31,74170.0,-3.49,-28.75,-29.29,0,*50
1491768497.59,56512,14.25,74168.0,-3.47,-28.75,-29.29,0,*5D
1491768498.81,56513,14.31,74168.8,-3.49,-28.59,-29.07,0,*50
1491768500.06,56514,14.31,74168.3,-3.47,-28.75,-29.23,0,*51
1491768501.33,56515,14.31,74170.8,-3.47,-28.75,-29.39,0,*5B